Location: Dampvalley
(47.9094°N, 6.1967°E)
Time: 17:35:45
(UTC+00:00)

Cosmos 2322 Rocket - Pass Details

Date: 05 March 2021
Orbit: 832 x 852 km, 71.0° (Epoch: 14 April)

Event Time Altitude Azimuth Distance (km) Brightness Sun altitude
Rises 03:42:20 0° 329° (NNW) 3,405 5.2 -24.9°
Enters shadow 03:43:59 - 327° (NNW) 2,782 4.8 -24.7°
Exits shadow 03:50:48 55° 229° (SW) 1,013 2.2 -23.6°
Drops below altitude 10° 03:55:52 10° 172° (S) 2,465 4.5 -22.8°
Sets 03:58:20 0° 168° (SSE) 3,399 5.3 -22.4°
